Location: Sungai Lasa
(2.4500°N, 113.4500°E)
Time: 16:57:55
(UTC+00:00)

Tiangong - Pass Details

Date: 03 February 2023
Orbit: 373 x 380 km, 41.5° (Epoch: 31 March)

Event Time Altitude Azimuth Distance (km) Brightness Sun altitude
Rises 12:08:50 0° 310° (NW) 2,229 2.2 -22.0°
Reaches altitude 10° 12:10:54 10° 307° (NW) 1,375 1.1 -22.5°
Enters shadow 12:12:40 30° 298° (WNW) 698 -0.5 -22.9°
